Location: Cedar Acres Mobile Home Park
(42.5558°N, 73.5942°W)
Time: 11:55:02
(UTC+00:00)

Daily predictions for brighter satellites

Satellite Brightness Start Highest point End
(mag) Time Altitude Azimuth Time Altitude Azimuth Time Altitude Azimuth
Cosmos 2369 4.5 21:52:56 10° SSE 21:57:56 33° ESE 22:02:58 10° NE
ASTEX 1 3.7 21:53:30 10° N 21:58:31 78° W 22:03:29 10° SSW
USA 229 DEB 3.7 21:56:05 10° SSW 22:02:38 87° SE 22:09:31 10° NE
USA 229 3.7 21:56:12 10° SSW 22:02:44 87° SE 22:09:36 10° NE
Cosmos 2221 3.0 22:01:25 10° SSW 22:05:42 65° W 22:10:02 10° N
GEOS 3 Rocket 4.0 22:01:45 10° NE 22:06:51 51° ESE 22:11:58 10° SSW
NOSS 3-1 (C) 3.3 22:01:34 10° SSW 22:07:02 86° SE 22:13:20 10° NE
ATLAS 5 CENTAUR R/B 2.4 22:01:17 10° NNW 22:07:09 76° NE 22:13:51 10° SE
Cosmos 2082 4.1 22:02:25 10° NNW 22:07:42 40° ENE 22:12:58 10° SE
NOSS 3-1 (A) 3.5 22:02:43 10° SSW 22:08:01 56° ESE 22:14:03 10° NE
Cosmos 1825 4.3 22:04:57 10° NNW 22:08:20 31° W 22:11:41 10° SSW
Cosmos 1607 3.9 22:03:15 10° NNW 22:09:30 82° ENE 22:15:48 10° SE
Cosmos 1697 Rocket 3.2 22:04:47 10° S 22:09:58 39° ESE 22:15:10 10° NE
Cosmos 1464 Rocket 4.4 22:04:31 10° N 22:10:16 39° ENE 22:15:57 10° SE
Cosmos 2278 4.4 22:11:39 10° SSE 22:16:43 35° ESE 22:21:49 10° NE
YAOGAN 6 3.9 22:16:37 10° ESE 22:19:09 19° ENE 22:21:40 10° NNE
Cosmos 1862 4.0 22:16:02 10° NNE 22:19:35 30° ENE 22:23:09 10° SE
YAOGAN 1 3.9 22:16:54 10° ESE 22:19:50 18° ENE 22:22:45 10° NNE
TELKOM 3 3.2 22:23:37 10° WNW 22:25:44 58° SW 22:27:49 10° SE
Geosat 4.2 22:20:58 10° NE 22:25:55 54° ESE 22:30:49 10° S
Cosmos 1656 3.7 22:25:25 10° SSW 22:30:58 82° WNW 22:36:30 10° NNE
Cosmos 1680 Rocket 3.7 22:31:40 10° S 22:36:41 51° ESE 22:41:46 10° NNE
COBE Rocket 3.7 22:33:50 10° NNE 22:38:38 84° E 22:43:18 10° S
Ariane Rocket 4.5 22:41:13 16° NE 22:41:13 16° NE 22:43:51 10° NNE
SKYMED 2 3.8 22:39:16 10° NNE 22:43:29 46° E 22:47:39 10° S
NOSS 2-3 (C) 3.6 22:43:14 10° SSW 22:47:30 74° ESE 22:51:21 16° NE
Okean-O 2.7 22:44:35 10° SSE 22:49:00 83° WSW 22:53:28 10° NNW
SMAP 4.1 22:44:53 10° S 22:49:23 50° W 22:53:55 10° NNW
PSLV R/B 3.7 22:47:25 10° W 22:49:48 36° SSW 22:50:50 24° SE
Cosmos 1805 Rocket 4.5 22:45:51 10° NNW 22:50:05 51° W 22:54:19 10° S
Cosmos 923 Rocket 4.2 22:57:05 10° SSW 23:02:18 72° WNW 23:07:31 10° NNE
CSL-04 Rocket 3.7 22:58:25 10° SE 23:03:36 53° ENE 23:08:45 10° N
Cosmos 2034 Rocket 4.0 23:02:22 10° N 23:08:46 81° E 23:15:09 10° S
Cosmos 1624 Rocket 4.2 23:03:41 10° N 23:08:53 50° ENE 23:13:17 14° SE
Cosmos 2056 Rocket 3.6 23:04:35 10° N 23:09:34 48° ENE 23:12:53 20° SE
SL-16 R/B 3.9 23:07:52 10° SE 23:09:36 16° SE 23:09:36 16° SE
APEX 2.6 23:08:34 10° SSW 23:12:10 73° ESE 23:12:24 68° ENE
Cosmos 2228 Rocket 4.0 23:09:11 10° SSE 23:12:07 31° ESE 23:12:07 31° ESE
Cosmos 1980 Rocket 2.1 23:09:21 10° SSW 23:15:00 72° ESE 23:18:51 21° NNE
ERBS 4.3 23:15:07 10° W 23:17:45 21° NNW 23:18:43 19° N
Cosmos 1633 Rocket 3.6 23:13:30 10° NNW 23:17:52 61° W 23:22:13 10° S
Cosmos 2322 Rocket 4.2 23:16:28 10° SE 23:17:02 12° SE 23:17:02 12° SE
NOAA 15 4.5 23:16:10 10° SSE 23:21:28 82° ENE 23:26:47 10° NNW
Cosmos 2297 Rocket 4.1 23:16:48 10° NW 23:21:40 30° WSW 23:26:30 10° SSW
Cosmos 2227 Rocket 4.0 23:17:01 10° NW 23:22:01 33° WSW 23:26:58 10° SSW
Lacrosse 4 Rocket 3.0 23:19:10 10° WSW 23:22:47 30° NW 23:25:37 14° N
CZ-4 R/B 1.5 23:19:36 10° S 23:23:45 76° WSW 23:27:51 10° NNW
Cosmos 1151 Rocket 3.3 23:22:31 10° SSW 23:26:51 68° W 23:31:14 10° N
BREEZE-M DEB (TANK) 3.4 23:22:19 10° WNW 23:27:46 31° N 23:28:05 31° N
Cosmos 1634 Rocket 4.1 23:21:50 10° N 23:27:50 49° ENE 23:33:46 10° SSE
Cosmos 1328 Rocket 4.2 23:26:45 10° SSW 23:31:06 56° W 23:35:26 10° N
SeaSat 1 3.2 23:26:30 10° S 23:31:19 54° WSW 23:36:09 10° NW
COSMO-SKYMED 1 3.3 23:27:14 10° N 23:31:27 52° WNW 23:35:40 10° SSW
Cosmos 1816 Rocket 4.5 23:25:29 10° S 23:31:50 88° W 23:38:15 10° N
Tsikada Rocket 4.0 23:25:53 10° S 23:32:14 88° E 23:38:42 10° N
Cosmos 1933 Rocket 3.3 23:28:11 10° N 23:32:32 75° E 23:33:45 46° SSE
Cosmos 1515 Rocket 3.5 23:28:53 10° S 23:33:17 87° W 23:35:16 33° N
Envisat 4.4 23:31:37 10° SSW 23:36:21 39° W 23:41:08 10° NNW
USA 215 3.8 23:36:51 35° NE 23:38:02 38° NNE 23:43:56 10° NW
DMSP B5D1-3 4.4 23:36:13 39° NNE 23:38:09 72° ESE 23:43:17 10° S
Cosmos 2263 Rocket 2.8 23:36:14 10° NNW 23:40:21 38° NNE 23:40:21 38° NNE
Cosmos 1933 3.6 23:43:13 10° SSW 23:46:54 65° WSW 23:46:54 65° WSW
Cosmos 1697 Rocket 4.2 23:48:55 10° WSW 23:53:59 33° NW 23:58:33 12° N
YAOGAN 1 3.6 23:51:27 10° S 23:55:34 44° W 23:59:44 10° NNW
